Harrison, AR

10:23 AM CST on December 08, 2016 (GMT -0600)
Boone County

Weather History for KHRO - October, 2013

Change the Weather History Date:

Saturday, October 12, 2013

  Actual Average Record
Temperature  
Mean Temperature 67 °F 60 °F  
Max Temperature 74 °F 71 °F 93 °F (1928)
Min Temperature 59 °F 49 °F 25 °F (1909)
Degree Days  
Heating Degree Days 0 6  
Month to date heating degree days 34 60  
Since 1 July heating degree days 42 103  
Cooling Degree Days 2 1  
Month to date cooling degree days 47 18  
Year to date cooling degree days 1414 1397  
Growing Degree Days 16 (Base 50)    
Moisture  
Dew Point 60 °F    
Average Humidity 81    
Maximum Humidity 97    
Minimum Humidity 64    
Precipitation  
Precipitation 0.36 in 0.10 in 2.03 in (1954)
Month to date precipitation 2.57 1.33  
Year to date precipitation 36.74 34.49  
Snow  
Snow 0.00 in 0.00 in - ()
Month to date snowfall 0.0 0.0  
Since 1 July snowfall 0.0 0.0  
Since 1 September snowfall 0.0 0.0  
Snow Depth 0.00 in    
Sea Level Pressure  
Sea Level Pressure 30.05 in    
Wind  
Wind Speed 5 mph (NNE)    
Max Wind Speed 15 mph    
Max Gust Speed 22 mph    
Visibility 10 miles    
Events Rain , Thunderstorm    
T = Trace of Precipitation, MM = Missing Value Source: NWS Daily Summary

Daily Weather History Graph

Daily Weather History Graph

Search for Another Location

Airport or City:

Trip Planner

Search our weather history database for the weather conditions in past years. The results will help you decide how hot, cold, wet, or windy it might be!

Date:

Astronomy

Oct. 12, 2013 Rise Set
Actual Time 7:17 AM CDT 6:40 PM CDT
Civil Twilight 6:51 AM CDT 7:06 PM CDT
Nautical Twilight 6:21 AM CDT 7:35 PM CDT
Astronomical Twilight 5:51 AM CDT 8:05 PM CDT
Moon 2:40 PM CDT (10/12) 12:32 AM CDT (10/12)
Length of Visible Light 12h 14m
Length of Day
11h 22m
First Quarter, 59% of the Moon is Illuminated
Oct 12
First Quarter
Oct 18
Full
Oct 26
Last Quarter
Nov 3
New
Nov 9
First Quarter

Hourly Weather History & Observations

Time (CDT) Temp. Dew Point Humidity Pressure Visibility Wind Dir Wind Speed Gust Speed Precip Events Conditions
12:53 AM 64.9 °F 60.1 °F 84% 29.93 in 10.0 mi SSE 10.4 mph - N/A   Clear
1:53 AM 64.9 °F 60.1 °F 84% 29.93 in 10.0 mi South 9.2 mph - N/A   Clear
2:53 AM 64.0 °F 60.1 °F 87% 29.91 in 10.0 mi SSE 8.1 mph - N/A   Clear
3:53 AM 64.0 °F 60.1 °F 87% 29.91 in 10.0 mi ESE 5.8 mph - N/A   Partly Cloudy
4:53 AM 64.9 °F 61.0 °F 87% 29.92 in 10.0 mi ESE 4.6 mph - N/A Thunderstorm Mostly Cloudy
5:23 AM 64.4 °F 60.8 °F 88% 29.96 in 10.0 mi ESE 5.8 mph - N/A   Partly Cloudy
5:53 AM 66.0 °F 61.0 °F 84% 29.95 in 10.0 mi SE 8.1 mph - N/A   Partly Cloudy
6:53 AM 66.9 °F 62.1 °F 84% 29.98 in 10.0 mi North 8.1 mph - N/A   Mostly Cloudy
7:03 AM 64.4 °F 62.6 °F 94% 30.02 in 10.0 mi North 8.1 mph - N/A   Mostly Cloudy
7:13 AM 64.4 °F 62.6 °F 94% 30.03 in 9.0 mi North 9.2 mph - N/A   Overcast
7:37 AM 64.4 °F 60.8 °F 88% 30.04 in 10.0 mi North 9.2 mph 16.1 mph N/A Thunderstorm Overcast
7:53 AM 63.0 °F 57.9 °F 84% 30.06 in 10.0 mi NW 11.5 mph 20.7 mph 0.00 in Rain Light Rain
8:03 AM 60.8 °F 59.0 °F 94% 30.08 in 1.8 mi NNW 9.2 mph - 0.11 in Rain Heavy Rain
8:24 AM 60.8 °F 59.0 °F 94% 30.06 in 2.0 mi North 6.9 mph - 0.32 in Rain Rain
8:32 AM 60.8 °F 59.0 °F 94% 30.07 in 9.0 mi North 4.6 mph - 0.32 in Rain Light Rain
8:53 AM 61.0 °F 59.0 °F 93% 30.05 in 10.0 mi SE 5.8 mph - 0.33 in Rain Light Rain
9:53 AM 61.0 °F 60.1 °F 97% 30.05 in 10.0 mi SSE 9.2 mph - 0.03 in   Mostly Cloudy
10:53 AM 66.0 °F 61.0 °F 84% 30.06 in 10.0 mi SE 6.9 mph - N/A   Partly Cloudy
11:53 AM 70.0 °F 61.0 °F 73% 30.07 in 10.0 mi Calm Calm - N/A   Clear
12:45 PM 73.4 °F 60.8 °F 65% 30.10 in 10.0 mi Variable 5.8 mph - N/A   Mostly Cloudy
12:53 PM 73.0 °F 61.0 °F 66% 30.07 in 10.0 mi Calm Calm - N/A   Mostly Cloudy
1:53 PM 70.0 °F 62.1 °F 76% 30.06 in 10.0 mi North 9.2 mph - N/A   Overcast
2:53 PM 69.1 °F 62.1 °F 78% 30.07 in 10.0 mi North 8.1 mph - N/A   Overcast
3:22 PM 69.8 °F 60.8 °F 73% 30.10 in 10.0 mi North 9.2 mph - N/A   Overcast
3:53 PM 71.1 °F 61.0 °F 70% 30.07 in 10.0 mi NNE 10.4 mph - N/A   Overcast
4:53 PM 66.9 °F 60.1 °F 79% 30.07 in 10.0 mi North 5.8 mph - N/A   Overcast
5:53 PM 66.0 °F 59.0 °F 78% 30.09 in 10.0 mi North 4.6 mph - N/A   Overcast
6:53 PM 64.9 °F 59.0 °F 81% 30.11 in 10.0 mi NNW 3.5 mph - N/A   Overcast
7:05 PM 64.4 °F 59.0 °F 83% 30.13 in 10.0 mi NNW 3.5 mph - N/A   Overcast
7:53 PM 64.0 °F 60.1 °F 87% 30.13 in 10.0 mi Calm Calm - N/A   Overcast
8:53 PM 61.0 °F 59.0 °F 93% 30.15 in 10.0 mi West 3.5 mph - N/A   Scattered Clouds
9:53 PM 60.1 °F 59.0 °F 96% 30.17 in 10.0 mi NNW 3.5 mph - N/A   Mostly Cloudy
10:53 PM 59.0 °F 57.0 °F 93% 30.17 in 10.0 mi West 3.5 mph - N/A   Unknown
11:53 PM 60.1 °F 57.9 °F 93% 30.18 in 10.0 mi Calm Calm - N/A   Overcast